Weather Roundup
Issued by NWS Chicago, IL

Home | Current Version | Previous Version | Graphics & Text | Print | Product List | Glossary On
Versions: 1 2 3 4 5 6 7 8 9 10 11 12 13 14 15 16 17 18 19 20 21 22 23 24 25 26 27 28 29 30 31 32 33 34 35 36 37 38 39 40 41 42 43 44 45 46 47 48 49 50
270
NZUS59 KLOT 220608
HRRLOT

CHICAGO AREA WEATHER ROUNDUP
NATIONAL WEATHER SERVICE CHICAGO/ROMEOVILLE IL
100 AM CDT TUE AUG 22 2017

NOTE: "FAIR" INDICATES FEW OR NO CLOUDS BELOW 12,000 FEET WITH NO
SIGNIFICANT WEATHER AND/OR OBSTRUCTIONS TO VISIBILITY.

* THESE STATIONS ARE NOT UNDER NWS QUALITY CONTROL. THEY ALSO MAY NOT
  REPORT WEATHER SUCH AS PRECIPITATION OR FOG.

ILZ005-006-012>014-019>023-220700-
NORTHEAST ILLINOIS

CITY           SKY/WX    TMP DP  RH WIND       PRES   REMARKS
OHARE          CLOUDY    72  68  87 S15       29.83F
6HR MIN TEMP:  72; 6HR MAX TEMP:  81; 6HR PCP: TRACE;

MIDWAY         CLOUDY    72  69  90 S14       29.86F
6HR MIN TEMP:  72; 6HR MAX TEMP:  80; 6HR PCP:  0.63;

AURORA         PTCLDY    71  70  96 S12       29.85F
6HR MIN TEMP:  71; 6HR MAX TEMP:  78; 6HR PCP:  0.05;

LANSING*       CLOUDY    70  67  90 S14       29.91F
JOLIET*        CLOUDY    73  73  98 S14G20    29.88F
WAUKEGAN       CLOUDY    74  70  87 SW13G21   29.83F
6HR MIN TEMP:  74; 6HR MAX TEMP:  80; 6HR PCP: TRACE;

DUPAGE AIRPORT PTCLDY    71  69  93 S15G26    29.84F
6HR MIN TEMP:  70; 6HR MAX TEMP:  78; 6HR PCP:  0.06;

WHEELING       PTCLDY    74  70  87 S9        29.85F
6HR MIN TEMP:  74; 6HR MAX TEMP:  81;

MORRIS*        PTCLDY    72  70  95 S12G18    29.87F
LEWIS AIRPORT* CLOUDY    71  68  91 S17G23    29.86F
NORTHERLY ISL    N/A     71  67  87 S14         N/A
$$

WIZ051-052-058>065-066-070>072-220700-
SOUTHEAST WISCONSIN

CITY           SKY/WX    TMP DP  RH WIND       PRES   REMARKS
MILWAUKEE      MOCLDY    76  70  82 SW14      29.80F
6HR MIN TEMP:  76; 6HR MAX TEMP:  81;

KENOSHA*       CLOUDY    74  69  85 S12       29.83F
RACINE*        CLOUDY    74  70  87 SW7       29.83F
WAUKESHA       CLOUDY    70  66  88 SW8       29.84S
WEST BEND      CLOUDY    72  68  88 W7        29.83S
$$

INZ001>003-010>013-019-020-220700-
NORTHWEST INDIANA

CITY           SKY/WX    TMP DP  RH WIND       PRES   REMARKS
GARY*          RAIN      72  70  92 S5        29.89F
6HR MIN TEMP:  72; 6HR MAX TEMP:  83; 6HR PCP:  0.33;

MICHIGAN CITY* NOT AVBL
RENSSELAER*    NOT AVBL
VALPARAISO     HVY RAIN  73  71  93 W10       29.94S FOG
$$

LMZ740>746-220700-
SOUTHERN LAKE MICHIGAN

STATION/POSITION TIME  SKY/WX   TEMP WIND        PRES    VSBY
                                AIR  DIR/SP/G
                 (UTC)          (F)  (DEG/KT/KT) (MB)    (MI)
HARRISON CRIB    0540            72  200/ 20/ 22   N/A
BURNHAM HARBOR   NOT AVBL
CALUMET HARBOR   0548            72  200/ 11/ 14 1011.0F
BURNS HARBOR     0540            70  220/ 12/ 20 1013.5S
MICHIGAN CITY    0540            69  230/ 25/ 28   N/A
$$

ABBREVIATIONS USED IN REMARKS
   TC - TEMPERATURE IN CELSIUS
  WCI - WIND CHILL INDEX
   HX - HEAT INDEX
  VSB - VISIBILITY
$$




USA.gov is the U.S. government's official web portal to all federal, state and local government web resources and services.